QPF
0.00 0.00 0.00 0.00 0.00 0.00 0.00 0.00 0.00 0.00 0.00 0.00 0.00 0.00 0.00 0.00 0.00 0.01 0.00 0.00 0.00 0.00 0.00 0.00 0.01 0.01 0.02 0.03 0.03 0.02 0.02 0.02 0.02 0.02 0.02 0.01 0.01 0.01 0.01 0.02 0.02 0.02 0.01 0.02 0.02 0.02 0.02 0.03 0.02
0.00 0.00 0.00 0.00 0.00 0.00 0.00 0.00 0.00 0.00 0.00 0.00 0.00 0.00 0.00 0.00 0.00 0.00 0.00 0.00 0.00 0.01 0.01 0.01 0.01 0.01 0.02 0.03 0.02 0.01 0.01 0.01 0.02 0.02 0.02 0.02 0.02 0.02 0.02 0.02 0.03 0.02 0.02 0.02 0.02 0.03 0.02 0.02 0.02
0.00 0.00 0.00 0.00 0.00 0.00 0.00 0.00 0.00 0.00 0.00 0.00 0.00 0.00 0.00 0.00 0.00 0.00 0.00 0.00 0.00 0.01 0.02 0.01 0.01 0.01 0.03 0.03 0.02 0.01 0.01 0.01 0.02 0.01 0.02 0.02 0.02 0.02 0.02 0.03 0.02 0.02 0.02 0.04 0.04 0.03 0.03 0.02 0.03
0.01 0.01 0.01 0.00 0.00 0.00 0.00 0.00 0.00 0.00 0.00 0.00 0.00 0.00 0.00 0.00 0.00 0.00 0.00 0.00 0.00 0.02 0.03 0.02 0.02 0.02 0.03 0.03 0.02 0.02 0.01 0.02 0.02 0.02 0.02 0.02 0.02 0.02 0.03 0.03 0.02 0.02 0.02 0.02 0.03 0.03 0.02 0.02 0.01
0.02 0.01 0.00 0.00 0.00 0.00 0.00 0.00 0.00 0.00 0.00 0.00 0.00 0.00 0.00 0.00 0.00 0.00 0.00 0.00 0.01 0.02 0.03 0.03 0.03 0.03 0.03 0.03 0.03 0.03 0.03 0.02 0.02 0.02 0.02 0.02 0.02 0.03 0.03 0.02 0.02 0.02 0.02 0.02 0.02 0.02 0.02 0.02 0.01
0.02 0.01 0.00 0.00 0.00 0.00 0.00 0.00 0.00 0.00 0.00 0.00 0.00 0.00 0.00 0.00 0.00 0.00 0.00 0.00 0.01 0.02 0.03 0.02 0.03 0.03 0.04 0.05 0.04 0.04 0.04 0.03 0.02 0.02 0.01 0.01 0.01 0.02 0.03 0.02 0.02 0.02 0.02 0.02 0.02 0.02 0.02 0.01 0.01
0.02 0.01 0.00 0.00 0.00 0.00 0.00 0.00 0.00 0.00 0.00 0.00 0.00 0.00 0.00 0.00 0.00 0.00 0.00 0.00 0.01 0.02 0.03 0.03 0.04 0.05 0.06 0.06 0.06 0.05 0.06 0.07 0.04 0.02 0.02 0.01 0.02 0.03 0.02 0.03 0.02 0.02 0.03 0.03 0.02 0.02 0.01 0.01 0.01
0.01 0.01 0.00 0.00 0.00 0.00 0.00 0.00 0.00 0.00 0.00 0.00 0.00 0.00 0.00 0.00 0.00 0.00 0.00 0.01 0.02 0.03 0.04 0.05 0.06 0.06 0.07 0.06 0.07 0.08 0.07 0.07 0.05 0.03 0.01 0.01 0.02 0.03 0.03 0.03 0.03 0.03 0.04 0.04 0.03 0.02 0.02 0.01 0.01
0.02 0.01 0.01 0.00 0.00 0.00 0.00 0.00 0.00 0.01 0.01 0.00 0.00 0.00 0.00 0.00 0.00 0.01 0.01 0.01 0.03 0.04 0.06 0.07 0.07 0.07 0.07 0.06 0.06 0.09 0.08 0.07 0.06 0.04 0.02 0.02 0.03 0.03 0.03 0.02 0.01 0.03 0.04 0.03 0.02 0.02 0.01 0.01 0.01
0.03 0.02 0.01 0.00 0.00 0.00 0.00 0.00 0.00 0.00 0.01 0.01 0.01 0.00 0.00 0.00 0.01 0.01 0.01 0.02 0.02 0.05 0.10 0.08 0.07 0.07 0.07 0.06 0.06 0.09 0.08 0.07 0.06 0.04 0.03 0.03 0.03 0.03 0.02 0.01 0.01 0.02 0.03 0.03 0.02 0.02 0.02 0.01 0.01
0.03 0.02 0.01 0.00 0.00 0.00 0.00 0.00 0.00 0.00 0.00 0.01 0.01 0.01 0.00 0.01 0.01 0.01 0.02 0.02 0.02 0.04 0.12 0.12 0.06 0.06 0.07 0.06 0.06 0.07 0.08 0.08 0.06 0.04 0.03 0.03 0.04 0.04 0.02 0.01 0.02 0.01 0.01 0.02 0.02 0.02 0.02 0.02 0.01
0.03 0.02 0.01 0.01 0.00 0.00 0.00 0.00 0.00 0.00 0.00 0.00 0.00 0.01 0.01 0.00 0.01 0.01 0.02 0.02 0.03 0.04 0.11 0.15 0.09 0.07 0.07 0.09 0.08 0.06 0.06 0.06 0.06 0.07 0.06 0.05 0.05 0.04 0.03 0.01 0.01 0.01 0.01 0.02 0.01 0.01 0.02 0.03 0.03
0.03 0.02 0.01 0.01 0.00 0.00 0.00 0.00 0.01 0.01 0.00 0.00 0.00 0.00 0.00 0.00 0.00 0.01 0.01 0.01 0.02 0.04 0.07 0.12 0.12 0.10 0.09 0.11 0.11 0.07 0.06 0.06 0.05 0.09 0.12 0.08 0.05 0.05 0.03 0.02 0.02 0.01 0.01 0.01 0.01 0.01 0.01 0.01 0.03
0.02 0.02 0.02 0.02 0.01 0.00 0.00 0.01 0.01 0.01 0.01 0.01 0.00 0.00 0.00 0.00 0.01 0.01 0.01 0.01 0.02 0.03 0.05 0.06 0.08 0.08 0.08 0.10 0.12 0.09 0.07 0.07 0.06 0.07 0.14 0.16 0.09 0.06 0.05 0.04 0.02 0.01 0.01 0.01 0.01 0.01 0.01 0.01 0.01
0.03 0.03 0.03 0.03 0.02 0.01 0.01 0.02 0.01 0.01 0.02 0.01 0.00 0.00 0.00 0.01 0.01 0.01 0.02 0.02 0.02 0.03 0.05 0.06 0.06 0.05 0.05 0.07 0.11 0.13 0.09 0.07 0.06 0.04 0.08 0.16 0.17 0.10 0.07 0.06 0.04 0.03 0.02 0.01 0.01 0.01 0.01 0.01 0.01
0.04 0.04 0.05 0.04 0.03 0.02 0.02 0.01 0.01 0.01 0.02 0.01 0.00 0.00 0.00 0.01 0.01 0.02 0.03 0.03 0.03 0.03 0.05 0.06 0.06 0.05 0.04 0.04 0.07 0.15 0.12 0.09 0.07 0.04 0.05 0.09 0.15 0.16 0.13 0.10 0.07 0.05 0.03 0.02 0.01 0.01 0.01 0.01 0.01
0.06 0.05 0.05 0.04 0.03 0.02 0.03 0.02 0.01 0.02 0.02 0.01 0.00 0.00 0.00 0.00 0.01 0.01 0.01 0.02 0.03 0.04 0.05 0.05 0.05 0.04 0.04 0.04 0.06 0.13 0.18 0.12 0.08 0.06 0.05 0.06 0.08 0.10 0.12 0.12 0.11 0.08 0.05 0.03 0.01 0.01 0.01 0.01 0.01
0.05 0.03 0.03 0.03 0.02 0.03 0.04 0.02 0.01 0.01 0.02 0.01 0.01 0.01 0.00 0.00 0.00 0.01 0.01 0.02 0.03 0.03 0.04 0.05 0.06 0.06 0.05 0.06 0.06 0.09 0.16 0.16 0.12 0.09 0.06 0.05 0.07 0.06 0.07 0.08 0.08 0.07 0.05 0.04 0.02 0.01 0.01 0.01 0.00
0.03 0.03 0.02 0.02 0.02 0.05 0.06 0.03 0.01 0.01 0.01 0.01 0.01 0.00 0.00 0.00 0.00 0.01 0.01 0.02 0.03 0.04 0.04 0.04 0.07 0.08 0.09 0.07 0.07 0.07 0.12 0.17 0.15 0.10 0.08 0.06 0.05 0.05 0.06 0.06 0.06 0.06 0.05 0.03 0.02 0.02 0.01 0.01 0.01
0.02 0.04 0.03 0.02 0.02 0.07 0.09 0.05 0.02 0.01 0.01 0.01 0.00 0.00 0.00 0.00 0.00 0.00 0.01 0.02 0.03 0.04 0.04 0.05 0.06 0.09 0.10 0.08 0.07 0.07 0.10 0.14 0.18 0.13 0.09 0.06 0.04 0.04 0.05 0.04 0.05 0.06 0.06 0.05 0.03 0.02 0.01 0.01 0.01
0.02 0.03 0.03 0.03 0.03 0.08 0.08 0.05 0.02 0.01 0.01 0.01 0.00 0.00 0.00 0.00 0.00 0.01 0.02 0.02 0.03 0.04 0.03 0.04 0.06 0.06 0.08 0.10 0.09 0.07 0.11 0.15 0.17 0.16 0.11 0.07 0.04 0.02 0.03 0.03 0.03 0.03 0.04 0.04 0.04 0.03 0.02 0.01 0.01
0.02 0.02 0.03 0.03 0.04 0.07 0.07 0.06 0.03 0.02 0.01 0.01 0.01 0.01 0.01 0.00 0.00 0.01 0.02 0.02 0.01 0.02 0.03 0.03 0.04 0.05 0.07 0.10 0.10 0.07 0.08 0.13 0.15 0.15 0.12 0.10 0.07 0.04 0.02 0.02 0.02 0.02 0.03 0.03 0.03 0.04 0.03 0.02 0.01
0.02 0.02 0.03 0.04 0.05 0.05 0.06 0.05 0.03 0.01 0.01 0.01 0.01 0.01 0.01 0.00 0.00 0.00 0.01 0.02 0.01 0.01 0.02 0.03 0.04 0.05 0.05 0.09 0.11 0.09 0.08 0.10 0.15 0.15 0.12 0.11 0.10 0.06 0.03 0.03 0.03 0.02 0.03 0.03 0.04 0.04 0.04 0.03 0.02
0.02 0.03 0.04 0.05 0.06 0.05 0.03 0.02 0.01 0.01 0.01 0.01 0.01 0.01 0.00 0.00 0.00 0.01 0.01 0.01 0.02 0.02 0.03 0.03 0.04 0.05 0.05 0.07 0.11 0.10 0.08 0.09 0.12 0.14 0.13 0.11 0.10 0.09 0.06 0.04 0.03 0.03 0.02 0.02 0.03 0.03 0.03 0.03 0.02
0.03 0.05 0.08 0.09 0.08 0.05 0.01 0.01 0.01 0.01 0.01 0.01 0.01 0.01 0.01 0.01 0.01 0.01 0.00 0.01 0.02 0.03 0.03 0.03 0.04 0.05 0.06 0.07 0.08 0.09 0.10 0.10 0.10 0.12 0.13 0.14 0.12 0.09 0.07 0.06 0.05 0.04 0.04 0.03 0.02 0.02 0.03 0.03 0.03
0.03 0.05 0.06 0.07 0.06 0.03 0.02 0.01 0.01 0.01 0.01 0.01 0.01 0.01 0.01 0.01 0.01 0.01 0.00 0.00 0.02 0.03 0.04 0.04 0.04 0.06 0.06 0.06 0.07 0.08 0.09 0.11 0.12 0.11 0.11 0.12 0.11 0.10 0.09 0.07 0.06 0.06 0.05 0.05 0.04 0.04 0.03 0.04 0.05
0.03 0.04 0.04 0.05 0.03 0.02 0.01 0.01 0.01 0.01 0.01 0.01 0.01 0.00 0.00 0.01 0.01 0.01 0.01 0.01 0.02 0.03 0.04 0.05 0.05 0.06 0.06 0.06 0.07 0.06 0.07 0.10 0.11 0.10 0.09 0.09 0.10 0.10 0.09 0.08 0.07 0.07 0.07 0.07 0.07 0.06 0.04 0.03 0.04
0.02 0.03 0.04 0.05 0.04 0.03 0.01 0.01 0.03 0.04 0.03 0.01 0.01 0.01 0.01 0.01 0.01 0.01 0.01 0.01 0.02 0.02 0.02 0.05 0.08 0.08 0.07 0.05 0.06 0.06 0.06 0.08 0.09 0.09 0.08 0.08 0.08 0.08 0.09 0.09 0.08 0.07 0.06 0.06 0.06 0.05 0.04 0.04 0.04
0.02 0.02 0.03 0.04 0.04 0.04 0.03 0.02 0.04 0.04 0.03 0.02 0.01 0.01 0.02 0.02 0.02 0.01 0.01 0.01 0.02 0.02 0.02 0.03 0.07 0.11 0.12 0.09 0.07 0.07 0.06 0.07 0.07 0.08 0.08 0.07 0.06 0.07 0.07 0.07 0.06 0.05 0.05 0.04 0.04 0.03 0.03 0.04 0.04
0.01 0.02 0.02 0.03 0.02 0.02 0.03 0.02 0.04 0.04 0.03 0.03 0.02 0.02 0.03 0.04 0.03 0.02 0.01 0.01 0.01 0.02 0.02 0.03 0.05 0.08 0.13 0.15 0.11 0.07 0.06 0.05 0.05 0.05 0.06 0.06 0.06 0.06 0.06 0.06 0.06 0.04 0.03 0.03 0.02 0.02 0.03 0.03 0.04
MSLP
1012.50 1012.87 1013.33 1013.77 1014.10 1014.23 1014.16 1013.93 1013.63 1013.39 1013.30 1013.43 1013.82 1014.39 1015.05 1015.67 1016.16 1016.42 1016.47 1016.33 1016.12 1015.94 1015.90 1016.05 1016.40 1016.89 1017.45 1017.98 1018.39 1018.65 1018.75 1018.74 1018.67 1018.60 1018.60 1018.65 1018.77 1018.91 1019.03 1019.10 1019.11 1019.08 1019.01 1018.94 1018.89 1018.87 1018.86 1018.84 1018.80
1012.68 1013.08 1013.51 1013.89 1014.11 1014.14 1013.97 1013.67 1013.35 1013.12 1013.09 1013.31 1013.76 1014.39 1015.08 1015.71 1016.18 1016.42 1016.44 1016.31 1016.13 1016.00 1016.03 1016.25 1016.67 1017.22 1017.81 1018.35 1018.76 1019.02 1019.12 1019.12 1019.07 1019.04 1019.05 1019.13 1019.24 1019.37 1019.47 1019.52 1019.52 1019.47 1019.40 1019.34 1019.31 1019.30 1019.30 1019.28 1019.22
1012.96 1013.35 1013.73 1014.01 1014.11 1014.01 1013.75 1013.40 1013.07 1012.88 1012.92 1013.22 1013.75 1014.43 1015.15 1015.78 1016.23 1016.45 1016.47 1016.35 1016.20 1016.14 1016.23 1016.52 1016.99 1017.57 1018.18 1018.72 1019.12 1019.38 1019.48 1019.49 1019.47 1019.46 1019.50 1019.58 1019.70 1019.80 1019.88 1019.90 1019.87 1019.81 1019.74 1019.70 1019.69 1019.70 1019.72 1019.71 1019.64
1013.33 1013.69 1013.99 1014.15 1014.13 1013.92 1013.58 1013.19 1012.88 1012.75 1012.87 1013.25 1013.84 1014.57 1015.29 1015.91 1016.34 1016.54 1016.55 1016.45 1016.35 1016.35 1016.51 1016.86 1017.37 1017.97 1018.57 1019.09 1019.47 1019.71 1019.81 1019.83 1019.82 1019.83 1019.88 1019.98 1020.09 1020.18 1020.23 1020.23 1020.18 1020.12 1020.06 1020.04 1020.06 1020.10 1020.13 1020.13 1020.06
1013.75 1014.06 1014.27 1014.32 1014.18 1013.88 1013.48 1013.10 1012.83 1012.77 1012.97 1013.43 1014.07 1014.81 1015.53 1016.11 1016.50 1016.68 1016.69 1016.62 1016.57 1016.63 1016.86 1017.26 1017.80 1018.40 1018.98 1019.46 1019.81 1020.01 1020.09 1020.10 1020.10 1020.12 1020.19 1020.29 1020.40 1020.49 1020.53 1020.53 1020.48 1020.42 1020.38 1020.38 1020.41 1020.47 1020.51 1020.52 1020.44
1014.13 1014.39 1014.51 1014.45 1014.22 1013.87 1013.47 1013.12 1012.92 1012.96 1013.25 1013.77 1014.45 1015.18 1015.86 1016.39 1016.73 1016.87 1016.88 1016.84 1016.84 1016.96 1017.25 1017.69 1018.25 1018.84 1019.38 1019.81 1020.10 1020.25 1020.30 1020.30 1020.30 1020.33 1020.42 1020.53 1020.66 1020.76 1020.80 1020.80 1020.77 1020.73 1020.70 1020.71 1020.75 1020.81 1020.85 1020.84 1020.76
1014.39 1014.58 1014.61 1014.48 1014.21 1013.85 1013.48 1013.22 1013.13 1013.28 1013.67 1014.25 1014.95 1015.66 1016.28 1016.75 1017.02 1017.12 1017.12 1017.10 1017.14 1017.32 1017.65 1018.12 1018.68 1019.24 1019.73 1020.11 1020.34 1020.44 1020.46 1020.44 1020.44 1020.48 1020.58 1020.72 1020.87 1020.98 1021.06 1021.08 1021.06 1021.03 1021.01 1021.02 1021.05 1021.08 1021.10 1021.07 1020.97
1014.46 1014.58 1014.54 1014.36 1014.08 1013.76 1013.50 1013.36 1013.42 1013.71 1014.20 1014.85 1015.56 1016.24 1016.79 1017.18 1017.39 1017.44 1017.42 1017.40 1017.47 1017.68 1018.03 1018.51 1019.05 1019.57 1020.01 1020.32 1020.50 1020.56 1020.55 1020.52 1020.52 1020.59 1020.71 1020.87 1021.04 1021.19 1021.29 1021.33 1021.33 1021.31 1021.29 1021.28 1021.28 1021.28 1021.25 1021.18 1021.05
1014.33 1014.38 1014.29 1014.10 1013.85 1013.62 1013.49 1013.51 1013.74 1014.19 1014.80 1015.52 1016.25 1016.90 1017.40 1017.71 1017.85 1017.85 1017.80 1017.78 1017.85 1018.05 1018.40 1018.85 1019.34 1019.80 1020.18 1020.43 1020.56 1020.59 1020.57 1020.55 1020.57 1020.66 1020.80 1020.99 1021.19 1021.36 1021.48 1021.54 1021.55 1021.53 1021.50 1021.46 1021.42 1021.36 1021.29 1021.17 1021.02
1014.05 1014.04 1013.93 1013.76 1013.58 1013.46 1013.49 1013.70 1014.11 1014.72 1015.46 1016.25 1017.00 1017.64 1018.10 1018.36 1018.44 1018.40 1018.31 1018.25 1018.29 1018.46 1018.76 1019.14 1019.56 1019.94 1020.25 1020.44 1020.54 1020.55 1020.53 1020.53 1020.57 1020.69 1020.86 1021.07 1021.28 1021.47 1021.60 1021.67 1021.68 1021.65 1021.60 1021.53 1021.45 1021.35 1021.23 1021.07 1020.90
1013.75 1013.71 1013.60 1013.46 1013.37 1013.39 1013.58 1013.97 1014.56 1015.32 1016.17 1017.04 1017.83 1018.46 1018.90 1019.13 1019.17 1019.10 1018.97 1018.87 1018.86 1018.95 1019.15 1019.43 1019.74 1020.02 1020.23 1020.37 1020.43 1020.44 1020.43 1020.46 1020.53 1020.67 1020.86 1021.08 1021.30 1021.48 1021.61 1021.67 1021.68 1021.65 1021.58 1021.49 1021.38 1021.25 1021.09 1020.91 1020.73
1013.57 1013.53 1013.45 1013.37 1013.38 1013.53 1013.87 1014.41 1015.14 1016.02 1016.97 1017.90 1018.72 1019.37 1019.81 1020.03 1020.06 1019.97 1019.81 1019.66 1019.57 1019.57 1019.64 1019.78 1019.94 1020.09 1020.21 1020.27 1020.29 1020.29 1020.30 1020.34 1020.44 1020.60 1020.79 1021.01 1021.21 1021.37 1021.49 1021.54 1021.55 1021.51 1021.44 1021.34 1021.23 1021.09 1020.93 1020.74 1020.55
1013.64 1013.65 1013.62 1013.63 1013.73 1013.99 1014.45 1015.10 1015.93 1016.88 1017.88 1018.84 1019.68 1020.35 1020.80 1021.04 1021.09 1020.99 1020.82 1020.63 1020.46 1020.34 1020.27 1020.24 1020.24 1020.24 1020.23 1020.21 1020.18 1020.16 1020.17 1020.23 1020.33 1020.49 1020.67 1020.85 1021.02 1021.15 1021.24 1021.28 1021.28 1021.25 1021.20 1021.12 1021.03 1020.91 1020.76 1020.59 1020.41
1014.05 1014.13 1014.19 1014.29 1014.49 1014.85 1015.38 1016.08 1016.95 1017.91 1018.91 1019.86 1020.70 1021.37 1021.84 1022.12 1022.20 1022.14 1021.97 1021.75 1021.51 1021.28 1021.07 1020.88 1020.71 1020.55 1020.40 1020.28 1020.18 1020.12 1020.11 1020.16 1020.25 1020.38 1020.52 1020.66 1020.78 1020.86 1020.92 1020.94 1020.94 1020.92 1020.90 1020.86 1020.81 1020.73 1020.63 1020.49 1020.33
1014.76 1014.95 1015.12 1015.33 1015.62 1016.04 1016.61 1017.33 1018.17 1019.09 1020.03 1020.94 1021.74 1022.40 1022.89 1023.20 1023.34 1023.32 1023.19 1022.97 1022.69 1022.37 1022.04 1021.70 1021.37 1021.06 1020.78 1020.55 1020.37 1020.25 1020.20 1020.20 1020.25 1020.33 1020.42 1020.50 1020.55 1020.59 1020.60 1020.60 1020.60 1020.60 1020.61 1020.62 1020.62 1020.59 1020.53 1020.43 1020.29
1015.64 1015.97 1016.28 1016.60 1016.98 1017.45 1018.04 1018.73 1019.51 1020.35 1021.20 1022.03 1022.77 1023.40 1023.90 1024.25 1024.44 1024.49 1024.41 1024.21 1023.92 1023.56 1023.14 1022.70 1022.24 1021.80 1021.40 1021.06 1020.79 1020.60 1020.49 1020.43 1020.42 1020.43 1020.45 1020.45 1020.44 1020.41 1020.37 1020.35 1020.34 1020.35 1020.38 1020.43 1020.47 1020.48 1020.47 1020.39 1020.27
1016.54 1017.01 1017.46 1017.90 1018.38 1018.90 1019.49 1020.15 1020.85 1021.60 1022.35 1023.07 1023.74 1024.34 1024.83 1025.21 1025.46 1025.57 1025.56 1025.41 1025.15 1024.78 1024.33 1023.82 1023.28 1022.76 1022.26 1021.84 1021.48 1021.21 1021.02 1020.89 1020.81 1020.74 1020.67 1020.60 1020.51 1020.42 1020.33 1020.26 1020.23 1020.23 1020.26 1020.31 1020.37 1020.40 1020.40 1020.34 1020.23
1017.27 1017.88 1018.46 1019.03 1019.60 1020.19 1020.79 1021.43 1022.08 1022.74 1023.39 1024.03 1024.63 1025.18 1025.67 1026.07 1026.36 1026.55 1026.60 1026.52 1026.31 1025.97 1025.53 1025.00 1024.44 1023.86 1023.32 1022.82 1022.40 1022.06 1021.80 1021.59 1021.43 1021.28 1021.13 1020.98 1020.82 1020.66 1020.52 1020.40 1020.31 1020.27 1020.27 1020.29 1020.32 1020.33 1020.32 1020.25 1020.12
1017.74 1018.45 1019.15 1019.82 1020.49 1021.15 1021.80 1022.44 1023.08 1023.69 1024.29 1024.87 1025.43 1025.95 1026.42 1026.83 1027.17 1027.40 1027.52 1027.50 1027.35 1027.07 1026.67 1026.17 1025.62 1025.04 1024.48 1023.95 1023.49 1023.10 1022.77 1022.49 1022.26 1022.04 1021.82 1021.60 1021.38 1021.16 1020.94 1020.75 1020.60 1020.48 1020.40 1020.35 1020.31 1020.26 1020.19 1020.09 1019.94
1017.93 1018.69 1019.46 1020.22 1020.97 1021.71 1022.43 1023.12 1023.79 1024.42 1025.02 1025.59 1026.13 1026.64 1027.12 1027.54 1027.89 1028.16 1028.32 1028.36 1028.26 1028.04 1027.70 1027.26 1026.75 1026.21 1025.66 1025.14 1024.66 1024.23 1023.86 1023.53 1023.24 1022.97 1022.69 1022.42 1022.14 1021.85 1021.57 1021.30 1021.05 1020.83 1020.64 1020.47 1020.32 1020.18 1020.04 1019.88 1019.69
1017.93 1018.67 1019.46 1020.26 1021.08 1021.89 1022.69 1023.47 1024.21 1024.92 1025.58 1026.19 1026.77 1027.30 1027.79 1028.22 1028.58 1028.85 1029.03 1029.09 1029.04 1028.87 1028.58 1028.21 1027.76 1027.28 1026.77 1026.28 1025.81 1025.37 1024.98 1024.62 1024.29 1023.97 1023.66 1023.34 1023.01 1022.67 1022.32 1021.97 1021.62 1021.28 1020.96 1020.66 1020.38 1020.12 1019.87 1019.64 1019.40
1017.91 1018.57 1019.30 1020.09 1020.93 1021.80 1022.68 1023.55 1024.41 1025.22 1025.99 1026.71 1027.36 1027.94 1028.46 1028.89 1029.24 1029.50 1029.66 1029.72 1029.68 1029.54 1029.31 1028.99 1028.61 1028.19 1027.75 1027.30 1026.86 1026.44 1026.04 1025.67 1025.31 1024.97 1024.63 1024.28 1023.92 1023.53 1023.12 1022.68 1022.23 1021.77 1021.32 1020.88 1020.47 1020.09 1019.74 1019.42 1019.12
1018.07 1018.58 1019.20 1019.92 1020.72 1021.60 1022.53 1023.50 1024.47 1025.41 1026.32 1027.16 1027.91 1028.57 1029.13 1029.57 1029.90 1030.13 1030.25 1030.28 1030.22 1030.08 1029.88 1029.61 1029.30 1028.94 1028.56 1028.17 1027.76 1027.37 1026.98 1026.60 1026.24 1025.89 1025.53 1025.16 1024.77 1024.34 1023.88 1023.37 1022.83 1022.27 1021.70 1021.14 1020.61 1020.11 1019.67 1019.28 1018.92
1018.54 1018.87 1019.33 1019.91 1020.64 1021.47 1022.42 1023.43 1024.50 1025.57 1026.61 1027.57 1028.44 1029.18 1029.78 1030.23 1030.55 1030.73 1030.79 1030.77 1030.67 1030.52 1030.32 1030.09 1029.83 1029.53 1029.21 1028.88 1028.52 1028.15 1027.78 1027.41 1027.04 1026.68 1026.31 1025.92 1025.50 1025.05 1024.54 1023.98 1023.38 1022.74 1022.08 1021.43 1020.80 1020.23 1019.71 1019.24 1018.83
1019.38 1019.51 1019.78 1020.21 1020.80 1021.55 1022.45 1023.48 1024.60 1025.76 1026.91 1027.98 1028.95 1029.76 1030.40 1030.86 1031.14 1031.27 1031.28 1031.20 1031.05 1030.87 1030.67 1030.46 1030.24 1030.00 1029.74 1029.45 1029.14 1028.80 1028.45 1028.08 1027.71 1027.33 1026.94 1026.54 1026.10 1025.62 1025.09 1024.49 1023.85 1023.16 1022.45 1021.74 1021.06 1020.43 1019.85 1019.34 1018.87
1020.55 1020.50 1020.59 1020.84 1021.27 1021.91 1022.73 1023.73 1024.85 1026.05 1027.26 1028.41 1029.44 1030.30 1030.96 1031.42 1031.67 1031.75 1031.70 1031.56 1031.37 1031.16 1030.95 1030.76 1030.57 1030.38 1030.17 1029.93 1029.66 1029.35 1029.01 1028.64 1028.26 1027.87 1027.46 1027.03 1026.58 1026.07 1025.52 1024.90 1024.23 1023.52 1022.79 1022.05 1021.35 1020.69 1020.09 1019.54 1019.03
1021.91 1021.72 1021.66 1021.76 1022.04 1022.55 1023.27 1024.19 1025.28 1026.47 1027.69 1028.86 1029.92 1030.80 1031.46 1031.90 1032.12 1032.15 1032.04 1031.85 1031.62 1031.39 1031.18 1031.01 1030.85 1030.71 1030.54 1030.35 1030.11 1029.82 1029.49 1029.12 1028.72 1028.30 1027.87 1027.42 1026.94 1026.42 1025.84 1025.22 1024.54 1023.82 1023.08 1022.35 1021.64 1020.98 1020.36 1019.79 1019.25
1023.28 1023.03 1022.87 1022.86 1023.03 1023.43 1024.04 1024.88 1025.90 1027.04 1028.22 1029.37 1030.40 1031.26 1031.89 1032.29 1032.47 1032.45 1032.30 1032.07 1031.81 1031.58 1031.37 1031.22 1031.10 1030.99 1030.87 1030.71 1030.50 1030.23 1029.90 1029.52 1029.10 1028.66 1028.20 1027.72 1027.21 1026.67 1026.08 1025.45 1024.77 1024.05 1023.32 1022.59 1021.89 1021.23 1020.61 1020.03 1019.47
1024.50 1024.25 1024.07 1024.02 1024.13 1024.45 1024.99 1025.74 1026.68 1027.74 1028.85 1029.93 1030.89 1031.68 1032.26 1032.60 1032.72 1032.65 1032.46 1032.21 1031.94 1031.71 1031.52 1031.40 1031.31 1031.24 1031.16 1031.03 1030.84 1030.57 1030.24 1029.85 1029.41 1028.94 1028.45 1027.94 1027.41 1026.84 1026.24 1025.59 1024.91 1024.20 1023.47 1022.75 1022.05 1021.39 1020.78 1020.19 1019.61
1025.46 1025.28 1025.15 1025.11 1025.22 1025.51 1026.00 1026.69 1027.55 1028.52 1029.53 1030.51 1031.38 1032.07 1032.56 1032.82 1032.88 1032.76 1032.54 1032.27 1032.00 1031.78 1031.62 1031.52 1031.47 1031.44 1031.38 1031.27 1031.09 1030.83 1030.50 1030.09 1029.63 1029.14 1028.63 1028.09 1027.53 1026.95 1026.33 1025.67 1024.98 1024.25 1023.52 1022.79 1022.09 1021.43 1020.80 1020.21 1019.63
Thickness
5711 5718 5722 5717 5703 5697 5706 5728 5745 5747 5753 5762 5768 5767 5760 5752 5747 5736 5756 5768 5767 5763 5760 5757 5755 5753 5751 5750 5749 5747 5746 5744 5743 5742 5740 5739 5738 5737 5737 5736 5735 5734 5732 5731 5730 5729 5728 5727 5726
5706 5714 5712 5703 5691 5688 5707 5728 5734 5742 5752 5759 5763 5762 5756 5750 5754 5753 5758 5763 5763 5760 5757 5754 5752 5750 5748 5747 5745 5744 5743 5741 5740 5739 5738 5737 5736 5735 5734 5733 5732 5731 5729 5728 5727 5726 5725 5724 5723
5700 5707 5698 5693 5691 5695 5710 5728 5733 5743 5751 5752 5751 5754 5749 5744 5749 5751 5756 5760 5759 5756 5753 5750 5748 5747 5745 5743 5742 5741 5739 5738 5737 5736 5735 5733 5732 5731 5730 5729 5728 5727 5726 5725 5724 5723 5721 5720 5719
5693 5691 5690 5685 5690 5707 5717 5727 5733 5736 5740 5746 5743 5738 5741 5745 5748 5750 5755 5756 5754 5752 5749 5746 5744 5743 5741 5739 5738 5737 5736 5735 5734 5733 5731 5730 5729 5728 5727 5726 5725 5724 5723 5721 5720 5719 5718 5717 5716
5684 5679 5674 5677 5690 5707 5718 5726 5731 5726 5728 5734 5734 5728 5727 5738 5746 5748 5750 5751 5749 5747 5744 5741 5740 5739 5737 5735 5734 5733 5732 5731 5730 5729 5728 5727 5726 5724 5723 5722 5721 5720 5719 5718 5717 5715 5714 5713 5713
5668 5672 5666 5672 5688 5702 5711 5720 5722 5719 5721 5726 5725 5720 5719 5733 5738 5740 5744 5744 5744 5742 5739 5736 5735 5734 5732 5731 5730 5729 5728 5727 5726 5725 5724 5723 5722 5721 5719 5718 5717 5716 5715 5714 5713 5712 5711 5710 5709
5656 5659 5663 5676 5684 5692 5702 5713 5711 5710 5712 5718 5722 5713 5714 5724 5731 5735 5737 5738 5738 5736 5734 5731 5729 5728 5727 5726 5726 5725 5724 5723 5722 5721 5720 5719 5718 5717 5716 5714 5713 5712 5711 5710 5709 5708 5707 5706 5705
5652 5652 5659 5669 5675 5681 5694 5702 5705 5703 5704 5716 5718 5706 5704 5715 5724 5728 5729 5730 5730 5729 5727 5725 5724 5723 5722 5721 5721 5720 5719 5719 5718 5717 5716 5715 5714 5713 5712 5710 5709 5708 5707 5706 5705 5704 5703 5702 5701
5644 5637 5646 5661 5667 5674 5687 5689 5694 5701 5701 5704 5708 5706 5707 5712 5717 5717 5717 5719 5719 5720 5720 5719 5719 5718 5717 5717 5716 5715 5715 5714 5713 5712 5712 5711 5710 5709 5708 5706 5705 5704 5703 5702 5701 5700 5699 5698 5697
5628 5626 5643 5658 5664 5667 5675 5679 5682 5685 5685 5688 5692 5697 5701 5703 5705 5705 5706 5706 5708 5710 5713 5714 5714 5713 5712 5712 5711 5711 5710 5710 5710 5709 5708 5708 5707 5705 5704 5702 5701 5700 5699 5697 5697 5696 5695 5694 5693
5621 5624 5638 5647 5654 5658 5661 5668 5675 5672 5670 5676 5680 5684 5689 5693 5694 5696 5698 5700 5701 5704 5706 5708 5708 5707 5707 5707 5707 5707 5707 5706 5707 5706 5706 5705 5704 5701 5699 5697 5696 5695 5694 5693 5692 5691 5691 5691 5690
5614 5621 5629 5634 5641 5645 5649 5655 5659 5662 5665 5674 5677 5680 5681 5683 5686 5688 5691 5693 5695 5696 5699 5701 5702 5701 5701 5702 5702 5703 5703 5703 5704 5703 5703 5702 5701 5698 5696 5694 5692 5691 5690 5689 5688 5687 5687 5687 5686
5606 5611 5620 5626 5631 5635 5638 5643 5647 5653 5662 5667 5669 5671 5671 5673 5677 5681 5684 5686 5688 5689 5691 5693 5695 5695 5695 5696 5697 5698 5699 5699 5700 5700 5699 5698 5697 5695 5692 5690 5688 5687 5686 5685 5684 5684 5683 5682 5682
5601 5605 5609 5615 5620 5625 5626 5632 5635 5643 5652 5655 5657 5658 5662 5664 5668 5671 5675 5677 5680 5682 5684 5686 5687 5688 5689 5689 5690 5692 5694 5695 5695 5695 5694 5694 5692 5690 5688 5686 5684 5683 5681 5680 5679 5679 5678 5677 5676
5595 5593 5597 5605 5610 5615 5616 5617 5626 5635 5641 5643 5645 5649 5653 5656 5659 5661 5666 5669 5672 5675 5677 5679 5680 5681 5682 5682 5684 5686 5688 5689 5689 5689 5689 5689 5687 5685 5683 5681 5679 5678 5676 5675 5674 5673 5671 5670 5669
5585 5583 5583 5597 5603 5607 5602 5600 5618 5628 5631 5632 5636 5639 5643 5646 5649 5653 5657 5660 5664 5667 5669 5671 5672 5673 5674 5675 5677 5679 5681 5683 5683 5683 5683 5683 5681 5680 5678 5676 5674 5672 5670 5669 5667 5666 5664 5663 5661
5572 5571 5578 5587 5597 5600 5595 5594 5610 5619 5621 5623 5626 5629 5632 5635 5639 5643 5647 5651 5655 5658 5661 5662 5664 5665 5667 5668 5669 5671 5674 5675 5676 5676 5676 5676 5675 5674 5672 5670 5668 5666 5665 5663 5661 5659 5657 5655 5653
5560 5566 5574 5579 5588 5589 5585 5588 5600 5609 5612 5611 5615 5619 5623 5625 5629 5634 5638 5642 5646 5648 5651 5653 5655 5657 5659 5660 5661 5663 5665 5668 5669 5670 5670 5670 5669 5668 5666 5665 5662 5660 5658 5656 5654 5652 5650 5648 5646
5559 5561 5564 5571 5581 5578 5579 5583 5591 5598 5600 5600 5604 5608 5612 5617 5621 5625 5629 5633 5636 5638 5641 5643 5645 5648 5650 5651 5652 5653 5655 5659 5660 5662 5662 5663 5662 5661 5660 5658 5656 5654 5652 5649 5648 5646 5643 5640 5639
5554 5551 5555 5566 5574 5571 5571 5575 5585 5590 5591 5593 5595 5598 5602 5607 5611 5615 5619 5622 5625 5628 5630 5634 5636 5639 5641 5643 5644 5646 5648 5650 5652 5654 5654 5655 5655 5654 5652 5651 5649 5647 5644 5642 5640 5639 5636 5633 5633
5548 5545 5548 5551 5558 5565 5563 5566 5576 5582 5585 5587 5589 5591 5593 5597 5600 5604 5608 5611 5614 5617 5620 5624 5627 5630 5633 5635 5636 5637 5639 5641 5642 5644 5646 5647 5648 5647 5645 5643 5642 5640 5638 5635 5634 5633 5630 5626 5625
5538 5546 5547 5547 5541 5543 5553 5545 5566 5573 5575 5577 5579 5581 5583 5587 5591 5593 5597 5599 5603 5607 5611 5614 5617 5620 5623 5625 5627 5628 5630 5631 5634 5636 5637 5637 5638 5638 5637 5635 5634 5632 5630 5628 5627 5626 5624 5621 5618
5535 5541 5540 5540 5536 5535 5544 5537 5556 5567 5564 5567 5569 5572 5574 5578 5580 5583 5587 5590 5594 5598 5602 5605 5608 5611 5614 5616 5618 5620 5622 5624 5625 5626 5626 5627 5628 5628 5628 5627 5626 5624 5623 5621 5620 5618 5616 5614 5611
5535 5534 5535 5534 5530 5522 5541 5537 5546 5555 5559 5559 5560 5562 5564 5566 5570 5573 5577 5581 5584 5588 5592 5596 5599 5602 5604 5606 5609 5611 5613 5614 5615 5616 5615 5616 5617 5618 5618 5618 5617 5616 5614 5613 5612 5610 5609 5607 5605
5525 5516 5512 5513 5512 5523 5546 5541 5542 5549 5554 5552 5552 5553 5554 5555 5558 5562 5566 5570 5574 5577 5582 5586 5589 5592 5594 5597 5599 5601 5603 5606 5607 5608 5607 5607 5608 5608 5609 5609 5608 5607 5605 5605 5603 5602 5600 5599 5597
5514 5510 5501 5499 5507 5521 5535 5531 5538 5544 5544 5544 5544 5544 5544 5544 5546 5551 5555 5560 5564 5568 5572 5576 5579 5582 5584 5587 5590 5593 5594 5596 5598 5599 5600 5600 5599 5600 5601 5601 5599 5598 5597 5596 5594 5593 5592 5590 5589
5505 5501 5506 5499 5505 5503 5517 5530 5533 5536 5531 5529 5529 5529 5530 5532 5535 5538 5544 5549 5554 5559 5563 5567 5570 5573 5575 5578 5580 5583 5584 5586 5587 5590 5592 5591 5591 5591 5591 5591 5590 5589 5588 5587 5585 5584 5582 5581 5579
5502 5500 5496 5492 5491 5497 5513 5524 5519 5515 5515 5515 5514 5515 5517 5521 5524 5528 5532 5538 5543 5547 5553 5558 5562 5564 5566 5568 5570 5572 5574 5576 5577 5579 5581 5581 5581 5581 5581 5581 5581 5580 5579 5578 5576 5574 5573 5571 5570
5492 5491 5489 5489 5490 5488 5494 5506 5516 5512 5509 5505 5503 5503 5506 5508 5511 5515 5520 5526 5531 5537 5542 5548 5553 5555 5556 5558 5560 5562 5563 5564 5567 5569 5571 5571 5571 5571 5571 5570 5571 5570 5570 5569 5567 5565 5564 5562 5560
5490 5487 5482 5475 5478 5486 5485 5494 5507 5504 5503 5499 5495 5495 5497 5499 5501 5504 5509 5514 5520 5526 5531 5537 5542 5544 5546 5548 5550 5551 5552 5554 5556 5558 5560 5561 5561 5561 5561 5561 5560 5560 5559 5558 5556 5555 5554 5553 5550